Time,TemperatureF,DewpointF,PressureIn,WindDirection,WindDirectionDegrees,WindSpeedMPH,WindSpeedGustMPH,Humidity,HourlyPrecipIn,Conditions,Clouds,dailyrainin,SoftwareType,DateUTC
2013-11-23 00:00:00,63.4,61.9,30.16,North,5,0.0,0.0,95,0.00,,,0.00,WeatherTracker,2013-11-23 06:00:00,
2013-11-23 00:10:00,63.3,61.8,30.15,North,5,0.0,0.0,95,0.00,,,0.00,WeatherTracker,2013-11-23 06:10:00,
2013-11-23 00:20:00,63.2,61.7,30.14,North,5,0.0,0.0,95,0.00,,,0.00,WeatherTracker,2013-11-23 06:20:00,
2013-11-23 00:30:00,63.1,61.6,30.14,North,5,0.0,0.0,95,0.00,,,0.00,WeatherTracker,2013-11-23 06:30:00,
2013-11-23 00:35:00,63.0,61.5,30.15,North,5,0.0,0.0,95,0.00,,,0.00,WeatherTracker,2013-11-23 06:35:00,
2013-11-23 00:40:00,63.0,61.5,30.15,North,5,0.0,0.0,95,0.00,,,0.00,WeatherTracker,2013-11-23 06:40:00,
2013-11-23 00:45:00,62.9,61.4,30.15,North,5,0.0,0.0,95,0.00,,,0.00,WeatherTracker,2013-11-23 06:45:00,
2013-11-23 00:50:00,62.7,61.2,30.15,North,5,0.0,0.0,95,0.00,,,0.00,WeatherTracker,2013-11-23 06:50:00,
2013-11-23 01:00:00,62.7,61.2,30.16,North,5,0.0,0.0,95,0.00,,,0.00,WeatherTracker,2013-11-23 07:00:00,
2013-11-23 01:10:00,62.9,61.4,30.15,North,5,0.0,0.0,95,0.00,,,0.00,WeatherTracker,2013-11-23 07:10:00,
2013-11-23 01:15:00,62.9,61.4,30.15,North,5,0.0,0.0,95,0.00,,,0.00,WeatherTracker,2013-11-23 07:15:00,
2013-11-23 01:20:00,62.9,61.4,30.15,North,5,0.0,0.0,95,0.00,,,0.00,WeatherTracker,2013-11-23 07:20:00,
2013-11-23 01:25:00,62.9,61.4,30.15,North,5,0.0,0.0,95,0.00,,,0.00,WeatherTracker,2013-11-23 07:25:00,
2013-11-23 01:30:00,62.9,61.7,30.15,North,5,0.0,0.0,96,0.00,,,0.00,WeatherTracker,2013-11-23 07:30:00,
2013-11-23 01:35:00,62.9,61.7,30.15,North,5,0.0,0.0,96,0.00,,,0.00,WeatherTracker,2013-11-23 07:35:00,
2013-11-23 01:45:00,63.0,61.8,30.15,North,5,0.0,0.0,96,0.00,,,0.00,WeatherTracker,2013-11-23 07:45:00,
2013-11-23 01:50:00,63.0,61.8,30.14,North,5,0.0,0.0,96,0.00,,,0.00,WeatherTracker,2013-11-23 07:50:00,
2013-11-23 02:00:00,63.0,61.8,30.14,North,5,0.0,0.0,96,0.00,,,0.00,WeatherTracker,2013-11-23 08:00:00,
2013-11-23 02:05:00,63.0,61.8,30.14,North,5,0.0,0.0,96,0.00,,,0.00,WeatherTracker,2013-11-23 08:05:00,
2013-11-23 02:10:00,63.0,61.8,30.14,North,5,0.0,0.0,96,0.00,,,0.00,WeatherTracker,2013-11-23 08:10:00,
2013-11-23 02:15:00,63.1,61.9,30.14,North,5,0.0,0.0,96,0.00,,,0.00,WeatherTracker,2013-11-23 08:15:00,
2013-11-23 02:25:00,63.1,61.9,30.14,North,5,0.0,0.0,96,0.00,,,0.00,WeatherTracker,2013-11-23 08:25:00,
2013-11-23 02:35:00,63.1,61.9,30.14,North,5,0.0,0.0,96,0.00,,,0.00,WeatherTracker,2013-11-23 08:35:00,
2013-11-23 02:40:00,63.1,61.9,30.14,North,360,0.0,0.0,96,0.00,,,0.00,WeatherTracker,2013-11-23 08:40:00,
2013-11-23 02:45:00,63.1,61.9,30.14,North,360,0.0,0.0,96,0.00,,,0.00,WeatherTracker,2013-11-23 08:45:00,
2013-11-23 02:55:00,63.0,61.8,30.14,North,360,0.0,0.0,96,0.00,,,0.00,WeatherTracker,2013-11-23 08:55:00,
2013-11-23 03:00:00,63.0,61.8,30.14,North,360,0.0,0.0,96,0.00,,,0.00,WeatherTracker,2013-11-23 09:00:00,
2013-11-23 03:10:00,63.0,61.8,30.14,North,360,0.0,0.0,96,0.00,,,0.00,WeatherTracker,2013-11-23 09:10:00,
2013-11-23 03:20:00,63.0,61.8,30.14,North,360,0.0,0.0,96,0.00,,,0.00,WeatherTracker,2013-11-23 09:20:00,
2013-11-23 03:25:00,63.0,61.8,30.14,North,360,0.0,0.0,96,0.00,,,0.00,WeatherTracker,2013-11-23 09:25:00,
2013-11-23 03:30:00,63.0,61.8,30.14,North,360,0.0,0.0,96,0.00,,,0.00,WeatherTracker,2013-11-23 09:30:00,
2013-11-23 03:40:00,62.9,61.7,30.14,North,360,0.0,0.0,96,0.00,,,0.00,WeatherTracker,2013-11-23 09:40:00,
2013-11-23 03:45:00,62.9,61.7,30.14,North,360,0.0,0.0,96,0.00,,,0.00,WeatherTracker,2013-11-23 09:45:00,
2013-11-23 03:55:00,62.9,61.7,30.14,North,360,0.0,0.0,96,0.00,,,0.00,WeatherTracker,2013-11-23 09:55:00,
2013-11-23 04:00:00,62.8,61.6,30.14,North,360,0.0,0.0,96,0.00,,,0.00,WeatherTracker,2013-11-23 10:00:00,
2013-11-23 04:05:00,62.8,61.6,30.14,North,360,0.0,0.0,96,0.00,,,0.00,WeatherTracker,2013-11-23 10:05:00,
2013-11-23 04:10:00,62.7,61.5,30.14,North,360,0.0,0.0,96,0.00,,,0.00,WeatherTracker,2013-11-23 10:10:00,
2013-11-23 04:20:00,62.6,61.4,30.14,North,360,0.0,0.0,96,0.00,,,0.00,WeatherTracker,2013-11-23 10:20:00,
2013-11-23 04:30:00,62.3,61.1,30.14,North,360,0.0,0.0,96,0.00,,,0.00,WeatherTracker,2013-11-23 10:30:00,
2013-11-23 04:35:00,62.2,61.0,30.14,North,360,0.0,0.0,96,0.00,,,0.00,WeatherTracker,2013-11-23 10:35:00,
2013-11-23 04:45:00,61.9,60.7,30.14,North,360,0.0,0.0,96,0.00,,,0.00,WeatherTracker,2013-11-23 10:45:00,
2013-11-23 04:50:00,61.8,60.6,30.14,North,360,0.0,0.0,96,0.00,,,0.00,WeatherTracker,2013-11-23 10:50:00,
2013-11-23 05:00:00,61.8,60.6,30.14,North,360,0.0,0.0,96,0.00,,,0.00,WeatherTracker,2013-11-23 11:00:00,
2013-11-23 05:05:00,61.8,60.6,30.14,North,360,0.0,0.0,96,0.00,,,0.00,WeatherTracker,2013-11-23 11:05:00,
2013-11-23 05:15:00,61.8,60.6,30.14,North,360,0.0,0.0,96,0.00,,,0.00,WeatherTracker,2013-11-23 11:15:00,
2013-11-23 05:20:00,61.8,60.6,30.13,North,360,0.0,0.0,96,0.00,,,0.00,WeatherTracker,2013-11-23 11:20:00,
2013-11-23 05:25:00,61.8,60.6,30.14,North,360,0.0,0.0,96,0.00,,,0.00,WeatherTracker,2013-11-23 11:25:00,
2013-11-23 05:35:00,61.7,60.5,30.14,North,360,0.0,0.0,96,0.00,,,0.00,WeatherTracker,2013-11-23 11:35:00,
2013-11-23 05:40:00,61.7,60.5,30.14,North,360,0.0,0.0,96,0.00,,,0.00,WeatherTracker,2013-11-23 11:40:00,
2013-11-23 05:50:00,61.7,60.5,30.14,North,360,0.0,0.0,96,0.00,,,0.00,WeatherTracker,2013-11-23 11:50:00,
2013-11-23 05:55:00,61.6,60.4,30.15,North,360,0.0,0.0,96,0.00,,,0.00,WeatherTracker,2013-11-23 11:55:00,
2013-11-23 06:00:00,61.6,60.4,30.15,North,360,0.0,0.0,96,0.00,,,0.00,WeatherTracker,2013-11-23 12:00:00,
2013-11-23 06:05:00,61.6,60.4,30.15,North,360,0.0,0.0,96,0.00,,,0.00,WeatherTracker,2013-11-23 12:05:00,
2013-11-23 06:10:00,61.6,60.4,30.15,North,360,0.0,0.0,96,0.00,,,0.00,WeatherTracker,2013-11-23 12:10:00,
2013-11-23 06:20:00,61.5,60.3,30.15,North,360,0.0,0.0,96,0.00,,,0.00,WeatherTracker,2013-11-23 12:20:00,
2013-11-23 06:30:00,61.5,60.3,30.15,NNW,343,0.0,5.0,96,0.00,,,0.00,WeatherTracker,2013-11-23 12:30:00,
2013-11-23 06:35:00,61.5,60.3,30.16,North,350,0.0,5.0,96,0.00,,,0.00,WeatherTracker,2013-11-23 12:35:00,
2013-11-23 06:40:00,61.4,60.2,30.16,NNW,348,0.0,8.0,96,0.00,,,0.00,WeatherTracker,2013-11-23 12:40:00,
2013-11-23 06:50:00,61.4,60.2,30.15,North,11,0.0,5.0,96,0.00,,,0.00,WeatherTracker,2013-11-23 12:50:00,
2013-11-23 06:55:00,61.5,60.3,30.15,NNE,13,3.0,5.0,96,0.00,,,0.00,WeatherTracker,2013-11-23 12:55:00,
2013-11-23 07:05:00,61.5,60.3,30.16,NNW,348,4.0,6.0,96,0.00,,,0.00,WeatherTracker,2013-11-23 13:05:00,
2013-11-23 07:10:00,61.5,60.3,30.16,North,355,0.0,6.0,96,0.00,,,0.00,WeatherTracker,2013-11-23 13:10:00,
2013-11-23 07:15:00,61.6,60.4,30.16,North,355,0.0,6.0,96,0.00,,,0.00,WeatherTracker,2013-11-23 13:15:00,
2013-11-23 07:20:00,61.6,60.4,30.16,North,360,0.0,5.0,96,0.00,,,0.00,WeatherTracker,2013-11-23 13:20:00,
2013-11-23 07:25:00,61.7,60.5,30.17,NNE,15,0.0,5.0,96,0.00,,,0.00,WeatherTracker,2013-11-23 13:25:00,
2013-11-23 07:35:00,61.8,60.6,30.16,North,9,0.0,5.0,96,0.00,,,0.00,WeatherTracker,2013-11-23 13:35:00,
2013-11-23 07:45:00,61.9,60.7,30.17,North,355,0.0,7.0,96,0.00,,,0.00,WeatherTracker,2013-11-23 13:45:00,
2013-11-23 07:55:00,62.0,60.8,30.17,NNE,17,1.0,5.0,96,0.00,,,0.00,WeatherTracker,2013-11-23 13:55:00,
2013-11-23 08:00:00,62.0,60.8,30.17,NNW,339,0.0,5.0,96,0.00,,,0.00,WeatherTracker,2013-11-23 14:00:00,
2013-11-23 08:05:00,62.0,60.8,30.17,NNE,27,4.0,5.0,96,0.00,,,0.00,WeatherTracker,2013-11-23 14:05:00,
2013-11-23 08:10:00,62.1,60.9,30.17,North,355,0.0,6.0,96,0.00,,,0.00,WeatherTracker,2013-11-23 14:10:00,
2013-11-23 08:15:00,62.0,60.8,30.17,NNE,12,0.0,7.0,96,0.00,,,0.00,WeatherTracker,2013-11-23 14:15:00,
2013-11-23 08:25:00,62.2,60.7,30.17,NNE,19,0.0,7.0,95,0.00,,,0.00,WeatherTracker,2013-11-23 14:25:00,
2013-11-23 08:30:00,62.3,60.8,30.17,North,9,2.0,6.0,95,0.00,,,0.00,WeatherTracker,2013-11-23 14:30:00,
2013-11-23 08:35:00,62.4,61.2,30.18,North,351,3.0,6.0,96,0.00,,,0.00,WeatherTracker,2013-11-23 14:35:00,
2013-11-23 08:45:00,62.6,61.4,30.18,North,5,0.0,6.0,96,0.00,,,0.00,WeatherTracker,2013-11-23 14:45:00,
2013-11-23 08:50:00,62.7,61.2,30.18,NE,54,0.0,5.0,95,0.00,,,0.00,WeatherTracker,2013-11-23 14:50:00,
2013-11-23 08:55:00,63.0,61.8,30.18,NNE,12,3.0,5.0,96,0.00,,,0.00,WeatherTracker,2013-11-23 14:55:00,
2013-11-23 09:00:00,63.2,61.7,30.18,North,5,0.0,5.0,95,0.00,,,0.00,WeatherTracker,2013-11-23 15:00:00,
2013-11-23 09:10:00,63.6,62.1,30.18,North,360,0.0,6.0,95,0.00,,,0.00,WeatherTracker,2013-11-23 15:10:00,
2013-11-23 09:15:00,63.8,62.0,30.18,NNW,344,0.0,6.0,94,0.00,,,0.00,WeatherTracker,2013-11-23 15:15:00,
2013-11-23 09:25:00,64.9,62.8,30.18,North,360,0.0,4.0,93,0.00,,,0.00,WeatherTracker,2013-11-23 15:25:00,
2013-11-23 09:30:00,65.0,62.6,30.18,North,360,0.0,6.0,92,0.00,,,0.00,WeatherTracker,2013-11-23 15:30:00,
2013-11-23 09:35:00,65.2,62.5,30.18,North,5,5.0,6.0,91,0.00,,,0.00,WeatherTracker,2013-11-23 15:35:00,
2013-11-23 09:40:00,65.2,62.5,30.18,North,5,2.0,7.0,91,0.00,,,0.00,WeatherTracker,2013-11-23 15:40:00,
2013-11-23 09:50:00,65.0,62.0,30.18,North,355,0.0,7.0,90,0.00,,,0.00,WeatherTracker,2013-11-23 15:50:00,
2013-11-23 10:00:00,65.1,62.1,30.18,North,360,0.0,5.0,90,0.00,,,0.00,WeatherTracker,2013-11-23 16:00:00,
2013-11-23 10:05:00,65.1,62.1,30.17,North,5,0.0,8.0,90,0.00,,,0.00,WeatherTracker,2013-11-23 16:05:00,
2013-11-23 10:15:00,64.9,61.9,30.17,North,5,3.0,9.0,90,0.00,,,0.00,WeatherTracker,2013-11-23 16:15:00,
2013-11-23 10:20:00,65.1,62.1,30.17,North,9,5.0,9.0,90,0.00,,,0.00,WeatherTracker,2013-11-23 16:20:00,
2013-11-23 10:25:00,65.2,62.2,30.17,North,355,3.0,8.0,90,0.00,,,0.00,WeatherTracker,2013-11-23 16:25:00,
2013-11-23 10:30:00,65.1,62.1,30.17,North,11,0.0,8.0,90,0.00,,,0.00,WeatherTracker,2013-11-23 16:30:00,
2013-11-23 10:35:00,65.2,62.2,30.17,North,350,4.0,7.0,90,0.00,,,0.00,WeatherTracker,2013-11-23 16:35:00,
2013-11-23 10:40:00,65.1,62.1,30.16,North,360,0.0,7.0,90,0.00,,,0.00,WeatherTracker,2013-11-23 16:40:00,
2013-11-23 10:50:00,65.2,62.2,30.16,North,5,0.0,7.0,90,0.00,,,0.00,WeatherTracker,2013-11-23 16:50:00,
2013-11-23 11:00:00,65.3,62.0,30.16,NNW,344,1.0,7.0,89,0.00,,,0.00,WeatherTracker,2013-11-23 17:00:00,
2013-11-23 11:05:00,65.3,62.0,30.16,North,355,3.0,7.0,89,0.00,,,0.00,WeatherTracker,2013-11-23 17:05:00,
2013-11-23 11:10:00,65.1,61.8,30.15,North,360,0.0,7.0,89,0.00,,,0.00,WeatherTracker,2013-11-23 17:10:00,
2013-11-23 11:20:00,65.3,62.0,30.15,North,5,0.0,8.0,89,0.00,,,0.00,WeatherTracker,2013-11-23 17:20:00,
2013-11-23 11:30:00,65.3,62.0,30.15,NNW,335,2.0,7.0,89,0.00,,,0.00,WeatherTracker,2013-11-23 17:30:00,
2013-11-23 11:35:00,65.2,61.6,30.15,NNW,342,0.0,7.0,88,0.00,,,0.00,WeatherTracker,2013-11-23 17:35:00,
2013-11-23 11:45:00,64.9,61.6,30.15,NNW,341,0.0,10.0,89,0.00,,,0.00,WeatherTracker,2013-11-23 17:45:00,
2013-11-23 11:55:00,65.0,61.4,30.15,NNW,327,0.0,11.0,88,0.00,,,0.00,WeatherTracker,2013-11-23 17:55:00,
2013-11-23 12:05:00,64.8,61.2,30.14,NNW,346,4.0,11.0,88,0.00,,,0.00,WeatherTracker,2013-11-23 18:05:00,
2013-11-23 12:10:00,64.5,61.2,30.15,North,360,5.0,9.0,89,0.00,,,0.00,WeatherTracker,2013-11-23 18:10:00,
2013-11-23 12:20:00,63.5,60.5,30.14,North,9,3.0,10.0,90,0.00,,,0.00,WeatherTracker,2013-11-23 18:20:00,
2013-11-23 12:30:00,62.6,60.2,30.14,North,5,0.0,10.0,92,0.00,,,0.00,WeatherTracker,2013-11-23 18:30:00,
2013-11-23 12:40:00,62.4,59.4,30.14,North,5,0.0,9.0,90,0.00,,,0.00,WeatherTracker,2013-11-23 18:40:00,
2013-11-23 12:45:00,62.7,59.7,30.14,North,360,0.0,6.0,90,0.00,,,0.00,WeatherTracker,2013-11-23 18:45:00,
2013-11-23 12:50:00,63.1,59.8,30.13,North,9,0.0,5.0,89,0.00,,,0.00,WeatherTracker,2013-11-23 18:50:00,
2013-11-23 13:00:00,64.0,60.0,30.13,NNE,18,3.0,8.0,87,0.00,,,0.00,WeatherTracker,2013-11-23 19:00:00,
2013-11-23 13:05:00,64.4,60.1,30.13,North,355,4.0,9.0,86,0.00,,,0.00,WeatherTracker,2013-11-23 19:05:00,
2013-11-23 13:15:00,64.9,59.6,30.13,NNE,14,5.0,9.0,83,0.00,,,0.00,WeatherTracker,2013-11-23 19:15:00,
2013-11-23 13:20:00,65.0,59.7,30.12,NNE,22,6.0,10.0,83,0.00,,,0.00,WeatherTracker,2013-11-23 19:20:00,
2013-11-23 13:25:00,65.1,59.5,30.12,North,355,0.0,10.0,82,0.00,,,0.00,WeatherTracker,2013-11-23 19:25:00,
2013-11-23 13:35:00,65.0,59.4,30.12,NNW,348,4.0,8.0,82,0.00,,,0.00,WeatherTracker,2013-11-23 19:35:00,
2013-11-23 13:40:00,64.9,58.9,30.12,NNE,13,5.0,10.0,81,0.00,,,0.00,WeatherTracker,2013-11-23 19:40:00,
2013-11-23 13:45:00,64.6,58.6,30.13,NNE,23,6.0,10.0,81,0.00,,,0.00,WeatherTracker,2013-11-23 19:45:00,
2013-11-23 13:55:00,64.1,58.5,30.13,NNE,25,0.0,10.0,82,0.00,,,0.00,WeatherTracker,2013-11-23 19:55:00,
2013-11-23 14:05:00,63.9,58.6,30.12,NNE,12,6.0,9.0,83,0.00,,,0.00,WeatherTracker,2013-11-23 20:05:00,
2013-11-23 14:15:00,63.8,58.5,30.13,North,10,0.0,8.0,83,0.00,,,0.00,WeatherTracker,2013-11-23 20:15:00,
2013-11-23 14:20:00,63.8,58.2,30.12,NNE,17,5.0,8.0,82,0.00,,,0.00,WeatherTracker,2013-11-23 20:20:00,
2013-11-23 14:30:00,63.4,57.8,30.12,NNE,16,4.0,11.0,82,0.00,,,0.00,WeatherTracker,2013-11-23 20:30:00,
2013-11-23 14:40:00,63.3,58.0,30.13,North,5,5.0,10.0,83,0.00,,,0.00,WeatherTracker,2013-11-23 20:40:00,
2013-11-23 14:45:00,63.4,57.8,30.13,North,355,6.0,10.0,82,0.00,,,0.00,WeatherTracker,2013-11-23 20:45:00,
2013-11-23 14:55:00,63.2,57.6,30.14,NNE,28,0.0,10.0,82,0.00,,,0.00,WeatherTracker,2013-11-23 20:55:00,
2013-11-23 15:00:00,63.1,57.5,30.14,NNW,340,0.0,10.0,82,0.00,,,0.00,WeatherTracker,2013-11-23 21:00:00,
2013-11-23 15:10:00,62.8,57.2,30.14,NNW,347,8.0,9.0,82,0.00,,,0.00,WeatherTracker,2013-11-23 21:10:00,
2013-11-23 15:15:00,62.6,57.0,30.14,NNE,16,0.0,8.0,82,0.00,,,0.00,WeatherTracker,2013-11-23 21:15:00,
2013-11-23 15:25:00,62.3,56.7,30.14,NNE,29,7.0,9.0,82,0.00,,,0.00,WeatherTracker,2013-11-23 21:25:00,
2013-11-23 15:30:00,62.1,56.5,30.15,NE,42,4.0,9.0,82,0.00,,,0.00,WeatherTracker,2013-11-23 21:30:00,
2013-11-23 15:35:00,61.8,56.2,30.15,North,5,6.0,9.0,82,0.00,,,0.00,WeatherTracker,2013-11-23 21:35:00,
2013-11-23 15:45:00,61.4,56.2,30.15,NNW,345,3.0,10.0,83,0.00,,,0.00,WeatherTracker,2013-11-23 21:45:00,
2013-11-23 15:55:00,60.8,55.6,30.15,NNE,15,4.0,9.0,83,0.00,,,0.00,WeatherTracker,2013-11-23 21:55:00,
2013-11-23 16:00:00,60.3,55.1,30.15,NNW,346,0.0,12.0,83,0.00,,,0.00,WeatherTracker,2013-11-23 22:00:00,
2013-11-23 16:05:00,60.0,55.1,30.15,NNW,343,4.0,12.0,84,0.00,,,0.00,WeatherTracker,2013-11-23 22:05:00,
2013-11-23 16:10:00,59.8,55.0,30.16,North,5,6.0,10.0,84,0.00,,,0.00,WeatherTracker,2013-11-23 22:10:00,
2013-11-23 16:20:00,59.4,54.6,30.16,North,355,5.0,10.0,84,0.00,,,0.00,WeatherTracker,2013-11-23 22:20:00,
2013-11-23 16:25:00,59.2,54.4,30.16,NNW,348,2.0,10.0,84,0.00,,,0.00,WeatherTracker,2013-11-23 22:25:00,
2013-11-23 16:35:00,58.7,53.9,30.16,NNE,16,6.0,10.0,84,0.00,,,0.00,WeatherTracker,2013-11-23 22:35:00,
2013-11-23 16:40:00,58.5,53.7,30.16,North,355,6.0,10.0,84,0.00,,,0.00,WeatherTracker,2013-11-23 22:40:00,
2013-11-23 16:45:00,58.2,53.4,30.16,NNE,13,0.0,10.0,84,0.00,,,0.00,WeatherTracker,2013-11-23 22:45:00,
2013-11-23 16:55:00,57.9,53.4,30.16,North,355,0.0,10.0,85,0.00,,,0.00,WeatherTracker,2013-11-23 22:55:00,
2013-11-23 17:00:00,57.8,53.3,30.17,NNW,343,2.0,10.0,85,0.00,,,0.00,WeatherTracker,2013-11-23 23:00:00,
2013-11-23 17:05:00,57.7,53.2,30.17,North,355,1.0,7.0,85,0.00,,,0.00,WeatherTracker,2013-11-23 23:05:00,
2013-11-23 17:10:00,57.6,53.4,30.17,North,349,0.0,8.0,86,0.00,,,0.00,WeatherTracker,2013-11-23 23:10:00,
2013-11-23 17:15:00,57.5,53.3,30.17,North,5,1.0,8.0,86,0.00,,,0.00,WeatherTracker,2013-11-23 23:15:00,
2013-11-23 17:25:00,57.3,53.1,30.17,North,360,5.0,8.0,86,0.00,,,0.00,WeatherTracker,2013-11-23 23:25:00,
2013-11-23 17:30:00,57.3,52.8,30.17,North,5,0.0,8.0,85,0.00,,,0.00,WeatherTracker,2013-11-23 23:30:00,
2013-11-23 17:35:00,57.2,52.7,30.17,NNW,332,7.0,8.0,85,0.00,,,0.00,WeatherTracker,2013-11-23 23:35:00,
2013-11-23 17:45:00,57.1,52.3,30.17,North,5,6.0,9.0,84,0.00,,,0.00,WeatherTracker,2013-11-23 23:45:00,
2013-11-23 17:55:00,56.9,51.8,30.17,NE,42,2.0,12.0,83,0.00,,,0.00,WeatherTracker,2013-11-23 23:55:00,
2013-11-23 18:05:00,56.7,51.6,30.18,NNW,346,0.0,12.0,83,0.00,,,0.00,WeatherTracker,2013-11-24 00:05:00,
2013-11-23 18:10:00,56.6,51.2,30.18,NNE,15,5.0,10.0,82,0.00,,,0.00,WeatherTracker,2013-11-24 00:10:00,
2013-11-23 18:20:00,56.4,51.0,30.18,North,360,5.0,13.0,82,0.00,,,0.00,WeatherTracker,2013-11-24 00:20:00,
2013-11-23 18:25:00,56.3,50.9,30.18,North,349,4.0,13.0,82,0.00,,,0.00,WeatherTracker,2013-11-24 00:25:00,
2013-11-23 18:30:00,56.2,50.8,30.18,NNW,330,0.0,8.0,82,0.00,,,0.00,WeatherTracker,2013-11-24 00:30:00,
2013-11-23 18:35:00,56.0,50.6,30.18,North,5,1.0,6.0,82,0.00,,,0.00,WeatherTracker,2013-11-24 00:35:00,
2013-11-23 18:40:00,55.9,50.5,30.19,NNE,15,3.0,8.0,82,0.00,,,0.00,WeatherTracker,2013-11-24 00:40:00,
2013-11-23 18:50:00,55.7,50.0,30.19,NNE,13,7.0,10.0,81,0.00,,,0.00,WeatherTracker,2013-11-24 00:50:00,
2013-11-23 18:55:00,55.6,49.5,30.19,NNW,329,0.0,9.0,80,0.00,,,0.00,WeatherTracker,2013-11-24 00:55:00,
2013-11-23 19:00:00,55.6,49.2,30.19,North,11,3.0,12.0,79,0.00,,,0.00,WeatherTracker,2013-11-24 01:00:00,
2013-11-23 19:10:00,55.6,48.8,30.20,NNE,26,6.0,10.0,78,0.00,,,0.00,WeatherTracker,2013-11-24 01:10:00,
2013-11-23 19:20:00,55.6,48.8,30.20,NNE,18,5.0,10.0,78,0.00,,,0.00,WeatherTracker,2013-11-24 01:20:00,
2013-11-23 19:25:00,55.6,48.8,30.20,North,5,1.0,10.0,78,0.00,,,0.00,WeatherTracker,2013-11-24 01:25:00,
2013-11-23 19:30:00,55.6,48.8,30.20,North,360,0.0,9.0,78,0.00,,,0.00,WeatherTracker,2013-11-24 01:30:00,
2013-11-23 19:40:00,55.5,49.1,30.20,North,5,5.0,8.0,79,0.00,,,0.00,WeatherTracker,2013-11-24 01:40:00,
2013-11-23 19:45:00,55.5,49.1,30.20,North,10,0.0,9.0,79,0.00,,,0.00,WeatherTracker,2013-11-24 01:45:00,
2013-11-23 19:50:00,55.4,49.3,30.21,NNE,26,5.0,9.0,80,0.00,,,0.00,WeatherTracker,2013-11-24 01:50:00,
2013-11-23 20:00:00,55.3,48.9,30.20,NNE,30,0.0,8.0,79,0.00,,,0.00,WeatherTracker,2013-11-24 02:00:00,
2013-11-23 20:10:00,55.0,48.3,30.21,North,5,8.0,12.0,78,0.00,,,0.00,WeatherTracker,2013-11-24 02:10:00,
2013-11-23 20:20:00,54.7,47.3,30.21,NNE,13,4.0,13.0,76,0.00,,,0.00,WeatherTracker,2013-11-24 02:20:00,
2013-11-23 20:25:00,54.4,47.0,30.21,NE,44,1.0,12.0,76,0.00,,,0.00,WeatherTracker,2013-11-24 02:25:00,
2013-11-23 20:30:00,54.2,46.8,30.21,North,350,4.0,12.0,76,0.00,,,0.00,WeatherTracker,2013-11-24 02:30:00,
2013-11-23 20:35:00,54.1,47.1,30.21,North,5,1.0,12.0,77,0.00,,,0.00,WeatherTracker,2013-11-24 02:35:00,
2013-11-23 20:45:00,53.7,46.3,30.21,North,11,4.0,11.0,76,0.00,,,0.00,WeatherTracker,2013-11-24 02:45:00,
2013-11-23 20:50:00,53.5,46.1,30.21,North,360,7.0,10.0,76,0.00,,,0.00,WeatherTracker,2013-11-24 02:50:00,
2013-11-23 21:00:00,53.2,45.8,30.21,North,10,7.0,11.0,76,0.00,,,0.00,WeatherTracker,2013-11-24 03:00:00,
2013-11-23 21:10:00,52.9,45.5,30.22,North,360,6.0,11.0,76,0.00,,,0.00,WeatherTracker,2013-11-24 03:10:00,
2013-11-23 21:15:00,52.7,45.3,30.22,NNE,13,4.0,11.0,76,0.00,,,0.00,WeatherTracker,2013-11-24 03:15:00,
2013-11-23 21:20:00,52.6,45.3,30.22,NNE,26,5.0,10.0,76,0.00,,,0.00,WeatherTracker,2013-11-24 03:20:00,
2013-11-23 21:25:00,52.4,45.1,30.22,NNE,15,6.0,14.0,76,0.00,,,0.00,WeatherTracker,2013-11-24 03:25:00,
2013-11-23 21:30:00,52.3,45.0,30.22,NNE,25,2.0,14.0,76,0.00,,,0.00,WeatherTracker,2013-11-24 03:30:00,
2013-11-23 21:40:00,51.9,44.2,30.22,NE,38,3.0,11.0,75,0.00,,,0.00,WeatherTracker,2013-11-24 03:40:00,
2013-11-23 21:45:00,51.8,44.5,30.23,NNW,338,1.0,11.0,76,0.00,,,0.00,WeatherTracker,2013-11-24 03:45:00,
2013-11-23 21:50:00,51.6,44.6,30.23,NNE,15,1.0,8.0,77,0.00,,,0.00,WeatherTracker,2013-11-24 03:50:00,
2013-11-23 22:00:00,51.2,43.9,30.23,North,11,5.0,13.0,76,0.00,,,0.00,WeatherTracker,2013-11-24 04:00:00,
2013-11-23 22:05:00,51.0,43.7,30.24,North,5,0.0,13.0,76,0.00,,,0.00,WeatherTracker,2013-11-24 04:05:00,
2013-11-23 22:10:00,50.8,43.9,30.24,NNE,13,5.0,11.0,77,0.00,,,0.00,WeatherTracker,2013-11-24 04:10:00,
2013-11-23 22:20:00,50.4,43.8,30.24,North,10,0.0,9.0,78,0.00,,,0.00,WeatherTracker,2013-11-24 04:20:00,
2013-11-23 22:25:00,50.2,43.6,30.24,North,5,6.0,10.0,78,0.00,,,0.00,WeatherTracker,2013-11-24 04:25:00,
2013-11-23 22:35:00,49.9,43.3,30.24,NNE,15,5.0,9.0,78,0.00,,,0.00,WeatherTracker,2013-11-24 04:35:00,
2013-11-23 22:40:00,49.8,43.2,30.24,NNE,28,5.0,10.0,78,0.00,,,0.00,WeatherTracker,2013-11-24 04:40:00,
2013-11-23 22:45:00,49.6,42.7,30.24,NNW,347,6.0,10.0,77,0.00,,,0.00,WeatherTracker,2013-11-24 04:45:00,
2013-11-23 22:50:00,49.5,42.6,30.24,North,5,5.0,8.0,77,0.00,,,0.00,WeatherTracker,2013-11-24 04:50:00,
2013-11-23 22:55:00,49.4,42.5,30.24,NE,40,0.0,9.0,77,0.00,,,0.00,WeatherTracker,2013-11-24 04:55:00,
2013-11-23 23:05:00,49.0,42.1,30.23,NNE,17,0.0,9.0,77,0.00,,,0.00,WeatherTracker,2013-11-24 05:05:00,
2013-11-23 23:10:00,48.8,41.9,30.23,NE,34,7.0,8.0,77,0.00,,,0.00,WeatherTracker,2013-11-24 05:10:00,
2013-11-23 23:20:00,48.6,41.7,30.23,NNE,16,0.0,8.0,77,0.00,,,0.00,WeatherTracker,2013-11-24 05:20:00,
2013-11-23 23:25:00,48.5,41.6,30.23,North,11,4.0,8.0,77,0.00,,,0.00,WeatherTracker,2013-11-24 05:25:00,
2013-11-23 23:30:00,48.3,41.4,30.23,North,5,3.0,9.0,77,0.00,,,0.00,WeatherTracker,2013-11-24 05:30:00,
2013-11-23 23:35:00,48.2,41.3,30.23,NNE,12,2.0,9.0,77,0.00,,,0.00,WeatherTracker,2013-11-24 05:35:00,
2013-11-23 23:40:00,48.0,41.1,30.23,North,355,2.0,8.0,77,0.00,,,0.00,WeatherTracker,2013-11-24 05:40:00,
2013-11-23 23:45:00,47.9,41.0,30.23,NNE,30,1.0,11.0,77,0.00,,,0.00,WeatherTracker,2013-11-24 05:45:00,
2013-11-23 23:50:00,47.9,40.7,30.23,North,5,0.0,11.0,76,0.00,,,0.00,WeatherTracker,2013-11-24 05:50:00,
2013-11-23 23:55:00,47.7,40.5,30.23,NE,42,3.0,7.0,76,0.00,,,0.00,WeatherTracker,2013-11-24 05:55:00,